This is the latest recevied weather packets stored in our database for station/object JA0ZJX-13. If no packets are shown the sender has not sent any weather packets the latest 10 day(s).
| Time | Temp. | Humidity | Pressure | Rain* | Wind** | Luminosity | Snow |
|---|---|---|---|---|---|---|---|
| 1777969405 | 21.11° C | 39% | 1018.3 hPa | 0 mm | - | 211 W/m² | - |
| 1777968813 | 21.11° C | 36% | 1018.2 hPa | 0 mm | - | 251 W/m² | - |
| 1777968222 | 21.67° C | 35% | 1018.2 hPa | 0 mm | - | 292 W/m² | - |
| 1777967611 | 21.67° C | 34% | 1017.2 hPa | 0 mm | - | 329 W/m² | - |
| 1777967004 | 21.67° C | 34% | 1017.1 hPa | 0 mm | - | 366 W/m² | - |
| 1777966413 | 21.67° C | 33% | 1017 hPa | 0 mm | - | 287 W/m² | - |
| 1777965821 | 22.22° C | 32% | 1017 hPa | 0 mm | - | 438 W/m² | - |
| 1777965210 | 22.22° C | 32% | 1016.9 hPa | 0 mm | - | 473 W/m² | - |
| 1777964623 | 22.22° C | 30% | 1016.9 hPa | 0 mm | - | 506 W/m² | - |
| 1777964010 | 22.22° C | 29% | 1016.8 hPa | 0 mm | - | 533 W/m² | - |
| 1777963419 | 22.78° C | 30% | 1016.7 hPa | 0 mm | - | 121 W/m² | - |
| 1777962808 | 22.22° C | 29% | 1016.7 hPa | 0 mm | - | 548 W/m² | - |
| 1777962220 | 22.22° C | 29% | 1016.8 hPa | 0 mm | - | 603 W/m² | - |
| 1777961607 | 22.22° C | 29% | 1016.9 hPa | 0 mm | - | 673 W/m² | - |
| 1777961016 | 22.22° C | 27% | 1016.9 hPa | 0 mm | - | 202 W/m² | - |
| 1777960408 | 22.22° C | 27% | 1017 hPa | 0 mm | - | 127 W/m² | - |
| 1777959817 | 22.22° C | 27% | 1017 hPa | 0 mm | - | 485 W/m² | - |
| 1777959206 | 22.22° C | 25% | 1017.1 hPa | 0 mm | - | 772 W/m² | - |
| 1777958615 | 21.67° C | 28% | 1017.1 hPa | 0 mm | - | 817 W/m² | - |
| 1777958005 | 21.11° C | 29% | 1017.4 hPa | 0 mm | - | 842 W/m² | - |
| 1777957415 | 21.11° C | 29% | 1017.4 hPa | 0 mm | - | 868 W/m² | - |
| 1777956825 | 20.56° C | 30% | 1017.6 hPa | 0 mm | - | 882 W/m² | - |
| 1777956213 | 20.56° C | 31% | 1017.8 hPa | 0 mm | - | 907 W/m² | - |
| 1777955607 | 20° C | 30% | 1017.9 hPa | 0 mm | - | 926 W/m² | - |
| 1777955017 | 19.44° C | 32% | 1018.1 hPa | 0 mm | - | 940 W/m² | - |
* Rain latest hour (hover to see other rain measurements)
** Current wind speed in m/s (hover to see current wind gust speed)